OAS9507 SKCC-SKRG

Flight info

Callsign OAS9507
Flight time 0h 48m
Altitude 24000
Route TORAT2A TORAT G431 EJA UW26 DIPRA DIPRA3B
Aircraft B738/M-SDE2E3FGHIRWXY/LB1

Departure

Time 2026-05-04 17:09
Airport Camilo Daza International Airport (SKCC)

Arrival

Time 2026-05-04 17:57
Airport Jose Maria Córdova International Airport (SKRG)
Time Latitude Longitude Altitude Speed Heading
2026-05-04 16:47 7.92814 -72.50871 1031 ft 0 kts 207°
2026-05-04 16:56 7.92829 -72.50864 1031 ft 4 kts 207°
2026-05-04 16:57 7.92849 -72.50852 1031 ft 4 kts 230°
2026-05-04 16:57 7.92848 -72.50816 1031 ft 1 kts 297°
2026-05-04 16:58 7.92846 -72.50813 1031 ft 0 kts 297°
2026-05-04 17:01 7.92855 -72.50828 1031 ft 5 kts 302°
2026-05-04 17:02 7.92872 -72.50883 1031 ft 4 kts 246°
2026-05-04 17:02 7.92788 -72.50977 1031 ft 12 kts 242°
2026-05-04 17:03 7.92726 -72.51024 1030 ft 13 kts 193°
2026-05-04 17:03 7.92702 -72.51029 1030 ft 4 kts 192°
2026-05-04 17:03 7.92662 -72.51065 1029 ft 5 kts 309°
2026-05-04 17:04 7.92728 -72.51122 1030 ft 6 kts 271°
2026-05-04 17:04 7.92688 -72.51173 1031 ft 14 kts 206°
2026-05-04 17:05 7.92457 -72.51248 1039 ft 24 kts 197°
2026-05-04 17:05 7.92149 -72.51350 1053 ft 18 kts 197°
2026-05-04 17:06 7.91955 -72.51410 1056 ft 20 kts 198°
2026-05-04 17:06 7.91861 -72.51425 1056 ft 11 kts 175°
2026-05-04 17:07 7.91825 -72.51454 1056 ft 5 kts 25°
2026-05-04 17:07 7.91847 -72.51443 1058 ft 6 kts 23°
2026-05-04 17:07 7.91851 -72.51442 1058 ft 0 kts 20°
2026-05-04 17:08 7.92201 -72.51331 1052 ft 87 kts 17°
2026-05-04 17:08 7.93020 -72.51070 1064 ft 155 kts 18°
2026-05-04 17:09 7.94041 -72.50714 1870 ft 159 kts 20°
2026-05-04 17:09 7.95137 -72.50396 2790 ft 165 kts 21°
2026-05-04 17:09 7.96251 -72.50088 3710 ft 170 kts 19°
2026-05-04 17:10 7.98865 -72.50570 4141 ft 222 kts 315°
2026-05-04 17:10 8.03255 -72.52209 5075 ft 263 kts 23°
2026-05-04 17:11 8.05019 -72.51735 5769 ft 262 kts 11°
2026-05-04 17:11 8.06890 -72.51559 6130 ft 283 kts
2026-05-04 17:11 8.10979 -72.51577 7434 ft 297 kts 359°
2026-05-04 17:12 8.13006 -72.52023 8188 ft 303 kts 337°
2026-05-04 17:12 8.16150 -72.54855 9641 ft 313 kts 300°
2026-05-04 17:13 8.16344 -72.61532 10861 ft 348 kts 244°
2026-05-04 17:14 8.12382 -72.67729 12635 ft 358 kts 226°
2026-05-04 17:14 8.10677 -72.69561 13300 ft 358 kts 220°
2026-05-04 17:14 8.06714 -72.72709 14347 ft 365 kts 208°
2026-05-04 17:15 8.04520 -72.73964 14905 ft 363 kts 202°
2026-05-04 17:15 7.99789 -72.75768 15784 ft 369 kts 191°
2026-05-04 17:16 7.94731 -72.76585 16951 ft 369 kts 180°
2026-05-04 17:16 7.87026 -72.75816 18450 ft 376 kts 163°
2026-05-04 17:17 7.84516 -72.75049 18880 ft 378 kts 157°
2026-05-04 17:17 7.76777 -72.75890 20223 ft 400 kts 213°
2026-05-04 17:18 7.74739 -72.77815 20625 ft 405 kts 231°
2026-05-04 17:18 7.71487 -72.82511 21506 ft 412 kts 236°
2026-05-04 17:19 7.68248 -72.87275 22611 ft 410 kts 235°
2026-05-04 17:19 7.64987 -72.91942 23783 ft 403 kts 235°
2026-05-04 17:20 7.61753 -72.96564 24058 ft 407 kts 234°
2026-05-04 17:20 7.58485 -73.01241 24042 ft 406 kts 234°
2026-05-04 17:20 7.56863 -73.03563 24058 ft 405 kts 234°
2026-05-04 17:21 7.53627 -73.08194 24063 ft 403 kts 234°
2026-05-04 17:21 7.50394 -73.12819 24026 ft 404 kts 235°
2026-05-04 17:22 7.48774 -73.15137 24023 ft 405 kts 234°
2026-05-04 17:22 7.47153 -73.17455 24028 ft 405 kts 235°
2026-05-04 17:23 7.42273 -73.24434 24004 ft 407 kts 234°
2026-05-04 17:23 7.40639 -73.26770 24004 ft 408 kts 234°
2026-05-04 17:23 7.37367 -73.31447 24014 ft 408 kts 235°
2026-05-04 17:24 7.35760 -73.33752 24004 ft 408 kts 235°
2026-05-04 17:24 7.30925 -73.40676 23979 ft 405 kts 234°
2026-05-04 17:25 7.29283 -73.43018 23980 ft 404 kts 234°
2026-05-04 17:25 7.26043 -73.47633 23962 ft 403 kts 234°
2026-05-04 17:26 7.22800 -73.52254 23954 ft 404 kts 234°
2026-05-04 17:26 7.17921 -73.59206 23948 ft 407 kts 234°
2026-05-04 17:27 7.14644 -73.63875 23945 ft 408 kts 234°
2026-05-04 17:27 7.11362 -73.68550 23933 ft 409 kts 234°
2026-05-04 17:28 7.08090 -73.73210 23939 ft 408 kts 234°
2026-05-04 17:29 7.03188 -73.80189 23939 ft 407 kts 235°
2026-05-04 17:29 6.98905 -73.87563 23919 ft 407 kts 241°
2026-05-04 17:30 6.94796 -73.95040 23926 ft 408 kts 240°
2026-05-04 17:31 6.92026 -74.00012 23929 ft 406 kts 240°
2026-05-04 17:31 6.87863 -74.07444 23951 ft 406 kts 240°
2026-05-04 17:32 6.85091 -74.12388 23960 ft 406 kts 240°
2026-05-04 17:33 6.80938 -74.19794 23952 ft 407 kts 240°
2026-05-04 17:33 6.79549 -74.22270 23977 ft 407 kts 240°
2026-05-04 17:34 6.75375 -74.29710 23976 ft 407 kts 240°
2026-05-04 17:34 6.73986 -74.32184 23963 ft 407 kts 240°
2026-05-04 17:35 6.69809 -74.39625 23998 ft 407 kts 240°
2026-05-04 17:35 6.67498 -74.43741 24007 ft 406 kts 240°
2026-05-04 17:35 6.65643 -74.47045 23995 ft 406 kts 240°
2026-05-04 17:36 6.64721 -74.48686 23998 ft 406 kts 240°
2026-05-04 17:36 6.63335 -74.51154 24023 ft 405 kts 240°
2026-05-04 17:36 6.61947 -74.53624 24013 ft 405 kts 240°
2026-05-04 17:36 6.60677 -74.56152 24009 ft 406 kts 247°
2026-05-04 17:37 6.59675 -74.58801 24041 ft 406 kts 250°
2026-05-04 17:37 6.58778 -74.61496 24027 ft 406 kts 251°
2026-05-04 17:37 6.57904 -74.64194 24063 ft 407 kts 251°
2026-05-04 17:37 6.57018 -74.66895 24062 ft 407 kts 251°
2026-05-04 17:38 6.56110 -74.69598 24053 ft 408 kts 250°
2026-05-04 17:38 6.55188 -74.72291 24056 ft 408 kts 250°
2026-05-04 17:38 6.54250 -74.74993 24064 ft 409 kts 250°
2026-05-04 17:38 6.53308 -74.77686 24053 ft 409 kts 250°
2026-05-04 17:39 6.51413 -74.83083 24076 ft 409 kts 250°
2026-05-04 17:39 6.50465 -74.85782 24063 ft 409 kts 250°
2026-05-04 17:39 6.49519 -74.88475 24080 ft 409 kts 250°
2026-05-04 17:40 6.48582 -74.91145 23921 ft 400 kts 250°
2026-05-04 17:40 6.47670 -74.93743 23712 ft 391 kts 250°
2026-05-04 17:40 6.46770 -74.96304 23493 ft 385 kts 250°
2026-05-04 17:40 6.45889 -74.98815 23246 ft 380 kts 250°
2026-05-04 17:41 6.45011 -75.01312 22955 ft 376 kts 250°
2026-05-04 17:41 6.44146 -75.03774 22638 ft 373 kts 250°
2026-05-04 17:41 6.43284 -75.06228 22285 ft 371 kts 250°
2026-05-04 17:41 6.42427 -75.08668 21958 ft 369 kts 250°
2026-05-04 17:42 6.41573 -75.11095 21607 ft 368 kts 250°
2026-05-04 17:42 6.40697 -75.13505 21250 ft 366 kts 244°
2026-05-04 17:42 6.39261 -75.15573 20882 ft 360 kts 220°
2026-05-04 17:42 6.37237 -75.16990 20550 ft 353 kts 201°
2026-05-04 17:43 6.34933 -75.17778 20225 ft 349 kts 193°
2026-05-04 17:43 6.32589 -75.18417 19918 ft 349 kts 192°
2026-05-04 17:43 6.30245 -75.19024 19595 ft 348 kts 191°
2026-05-04 17:43 6.27898 -75.19633 19254 ft 347 kts 192°
2026-05-04 17:44 6.25565 -75.20246 18914 ft 347 kts 192°
2026-05-04 17:44 6.23255 -75.20861 18570 ft 348 kts 192°
2026-05-04 17:44 6.20892 -75.21496 18191 ft 347 kts 192°
2026-05-04 17:44 6.18596 -75.22118 17841 ft 345 kts 192°
2026-05-04 17:45 6.16268 -75.22749 17250 ft 350 kts 192°
2026-05-04 17:45 6.13931 -75.23385 16828 ft 344 kts 192°
2026-05-04 17:45 6.11646 -75.24008 16454 ft 337 kts 192°
2026-05-04 17:45 6.09419 -75.24616 16112 ft 329 kts 192°
2026-05-04 17:46 6.07233 -75.25211 15780 ft 322 kts 192°
2026-05-04 17:46 6.05097 -75.25794 15448 ft 315 kts 192°
2026-05-04 17:46 6.03001 -75.26364 15137 ft 308 kts 192°
2026-05-04 17:46 6.00949 -75.26922 14819 ft 305 kts 192°
2026-05-04 17:47 5.98918 -75.27474 14647 ft 300 kts 192°
2026-05-04 17:47 5.96923 -75.28017 14494 ft 294 kts 192°
2026-05-04 17:47 5.94962 -75.28551 14352 ft 288 kts 192°
2026-05-04 17:47 5.93056 -75.29070 14213 ft 282 kts 192°
2026-05-04 17:48 5.91215 -75.29572 14090 ft 275 kts 192°
2026-05-04 17:48 5.89408 -75.30063 13950 ft 268 kts 192°
2026-05-04 17:48 5.88237 -75.30412 13873 ft 265 kts 200°
2026-05-04 17:48 5.86345 -75.31980 13704 ft 270 kts 227°
2026-05-04 17:49 5.85107 -75.33435 13532 ft 277 kts 227°
2026-05-04 17:49 5.83860 -75.34895 13372 ft 271 kts 226°
2026-05-04 17:49 5.82663 -75.36311 13201 ft 261 kts 231°
2026-05-04 17:49 5.81977 -75.37962 13001 ft 256 kts 263°
2026-05-04 17:50 5.82174 -75.39688 12809 ft 248 kts 292°
2026-05-04 17:50 5.83111 -75.41093 12626 ft 242 kts 321°
2026-05-04 17:50 5.84554 -75.41782 12569 ft 224 kts 353°
2026-05-04 17:50 5.86089 -75.42005 12287 ft 220 kts 358°
2026-05-04 17:51 5.87585 -75.42097 12034 ft 212 kts
2026-05-04 17:51 5.89033 -75.42129 11785 ft 204 kts
2026-05-04 17:51 5.90435 -75.42143 11532 ft 199 kts
2026-05-04 17:51 5.91809 -75.42152 11277 ft 200 kts
2026-05-04 17:52 5.93192 -75.42160 11069 ft 197 kts
2026-05-04 17:52 5.94551 -75.42170 10822 ft 190 kts
2026-05-04 17:52 5.95838 -75.42179 10604 ft 181 kts
2026-05-04 17:52 5.97062 -75.42188 10414 ft 175 kts
2026-05-04 17:53 5.98299 -75.42193 10185 ft 176 kts
2026-05-04 17:53 5.99513 -75.42203 10047 ft 172 kts
2026-05-04 17:53 6.00708 -75.42209 9753 ft 171 kts
2026-05-04 17:53 6.01903 -75.42218 9540 ft 171 kts
2026-05-04 17:54 6.03051 -75.42224 9315 ft 176 kts
2026-05-04 17:54 6.04289 -75.42230 9094 ft 175 kts
2026-05-04 17:54 6.05504 -75.42241 8876 ft 174 kts
2026-05-04 17:54 6.06707 -75.42248 8672 ft 172 kts
2026-05-04 17:55 6.07897 -75.42256 8436 ft 168 kts
2026-05-04 17:55 6.09070 -75.42263 8228 ft 169 kts
2026-05-04 17:55 6.10262 -75.42271 8005 ft 173 kts
2026-05-04 17:55 6.11456 -75.42264 7742 ft 171 kts 359°
2026-05-04 17:56 6.12627 -75.42285 7496 ft 165 kts
2026-05-04 17:56 6.13782 -75.42296 7258 ft 169 kts
2026-05-04 17:56 6.14935 -75.42294 7032 ft 162 kts
2026-05-04 17:56 6.15991 -75.42308 6978 ft 133 kts 359°
2026-05-04 17:57 6.16694 -75.42308 6990 ft 63 kts
2026-05-04 17:57 6.16856 -75.42368 6998 ft 17 kts 276°
2026-05-04 17:57 6.16859 -75.42405 7000 ft 0 kts 272°
2026-05-04 17:58 6.16859 -75.42407 7000 ft 2 kts 272°
2026-05-04 17:58 6.16859 -75.42423 7001 ft 0 kts 271°
2026-05-04 17:59 6.16859 -75.42426 7001 ft 3 kts 270°
2026-05-04 17:59 6.16860 -75.42463 7003 ft 7 kts 278°
2026-05-04 17:59 6.16879 -75.42496 7004 ft 0 kts 319°
2026-05-04 18:00 6.16881 -75.42498 7006 ft 2 kts 318°
2026-05-04 18:00 6.16909 -75.42526 7013 ft 11 kts 323°
2026-05-04 18:00 6.17009 -75.42575 7013 ft 13 kts 329°
2026-05-04 18:01 6.17038 -75.42624 7016 ft 7 kts 279°
2026-05-04 18:01 6.17051 -75.42666 7018 ft 3 kts 291°
2026-05-04 18:01 6.17059 -75.42684 7018 ft 2 kts 293°
2026-05-04 18:02 6.17064 -75.42697 7018 ft 0 kts 293°